"Pseudo-MPEC" for P222Jzr

Created 2024 Dec 1 8:31:21 UT using Find_Orb

Click here for an explanation of pseudo-MPECs

 
 Astrometry: 
     P222Jzr* C2024 11 29.37741005 59 05.928+10 20 04.48   ~BTJH 22.76wXNEOCPF52
     P222Jzr  C2024 11 29.38816105 59 06.078+10 19 37.44   ~BTJH 22.21wXNEOCPF52
     P222Jzr  C2024 11 29.39891905 59 06.186+10 19 10.70   ~BTJH 22.49wXNEOCPF52
     P222Jzr 3C2024 11 30.57164705 59 29.471+09 29 56.29   ~BUEV 21.94GVNEOCPT14
     P222Jzr 3C2024 11 30.57262805 59 29.479+09 29 53.81   ~BUEV 21.95GVNEOCPT14
     P222Jzr 3C2024 11 30.57360705 59 29.486+09 29 51.38   ~BUEV 22.17GVNEOCPT14

Station data:
(F52) Pan-STARRS 2, Haleakala  (N20.707382 W156.255910)  US/Hawaii.
   Observers J. Bulger, T. Dukes, T. Lowe, A. Schultz, M. Willman. Measurers
   K. Chambers, S. Chastel, T. de Boer, L. Denneau, J. Fairlamb, H.
   Flewelling, M. Huber, C.-C. Lin, E. Magnier, Y. Ramanjooloo, R. Wainscoat,
   R. Weryk. 1.8-m Ritchey-Chrétien + CCD.
(T14) Mauna Kea-UH/Tholen NEO Follow-Up (CFHT)  (N19.825252 W155.468876)
   US/Hawaii.  Observer R. Weryk. 3.6-m Canada-France-Hawaii Telescope.

Orbital elements:  P222Jzr
   Perihelion 2025 Jan 23.21083 +/- 33.5 TT =  5:03:35 (JD 2460698.71083)
Epoch 2024 Nov 30.0 TT = JDT 2460644.5   Earth MOID: 0.2400   Ma: 0.0703
M 333.95292176 +/- 14               (J2000 ecliptic)             AutoNEOCP
n   0.48047742 +/- 0.151            Peri.  243.76129 +/- 30
a   1.61443559 +/- 0.339            Node   234.69025 +/- 2.5
e   0.2747382 +/- 0.126             Incl.    9.87539 +/- 3.1
P   2.051/749.241d         H 23.55  G  0.15   U 11.5  SR
q 1.17088833 +/- 0.0887    Q 2.05798286 +/- 1.05
From 6 observations 2024 Nov. 29-30 (28.7 hr); mean residual 0".16
Residuals in arcseconds: 
241129 F52  .14+  .30+    241129 F52  .33-  .19-    241130 T14  .01+  .01-    
241129 F52  .18+  .11-    241130 T14  .02+  .04-    241130 T14  .03-  .06+    

Ephemerides (geocentric):
Date (UTC) HH   RA             Dec           delta  r     elong  mag " sig PA
---- --------  ------------   ------------  ------ ------ -----  --- --------
2024 12 01 09  05 59 45.892   +08 55 49.54  .28252 1.2478 155.0 22.3 36.9   3
2024 12 01 10  05 59 46.652   +08 54 02.46  .28238 1.2477 155.0 22.3 39.6   4
2024 12 01 11  05 59 47.407   +08 52 15.31  .28225 1.2476 155.0 22.3 42.4   4
2024 12 01 12  05 59 48.158   +08 50 28.11  .28211 1.2474 155.0 22.3 45.2   4
2024 12 01 13  05 59 48.906   +08 48 40.84  .28197 1.2473 155.0 22.3 48.2   4
2024 12 01 14  05 59 49.649   +08 46 53.52  .28183 1.2472 155.0 22.3 51.2   4
2024 12 01 15  05 59 50.388   +08 45 06.14  .28169 1.2471 155.1 22.3 54.3   4
2024 12 01 16  05 59 51.123   +08 43 18.71  .28156 1.2470 155.1 22.3 57.4   5
2024 12 01 17  05 59 51.854   +08 41 31.21  .28142 1.2469 155.1 22.3 60.7   5
2024 12 01 18  05 59 52.581   +08 39 43.66  .28128 1.2468 155.1 22.3 64.0   5
2024 12 01 19  05 59 53.304   +08 37 56.05  .28115 1.2467 155.1 22.3 67.4   5
2024 12 01 20  05 59 54.023   +08 36 08.38  .28101 1.2465 155.1 22.3 70.9   5
2024 12 01 21  05 59 54.738   +08 34 20.66  .28087 1.2464 155.1 22.3 74.5   5
2024 12 01 22  05 59 55.449   +08 32 32.88  .28074 1.2463 155.2 22.3 78.1   5
2024 12 01 23  05 59 56.156   +08 30 45.05  .28060 1.2462 155.2 22.3 81.8   5
2024 12 02 00  05 59 56.859   +08 28 57.16  .28047 1.2461 155.2 22.3 85.6   5
2024 12 02 01  05 59 57.558   +08 27 09.21  .28033 1.2460 155.2 22.2 89.5   5
2024 12 02 02  05 59 58.253   +08 25 21.20  .28020 1.2459 155.2 22.2 93.5   5
2024 12 02 03  05 59 58.944   +08 23 33.15  .28006 1.2458 155.2 22.2 97.5   5
2024 12 02 04  05 59 59.631   +08 21 45.03  .27993 1.2456 155.2 22.2  102   6
2024 12 02 05  06 00 00.314   +08 19 56.86  .27979 1.2455 155.3 22.2  106   6
2024 12 02 06  06 00 00.993   +08 18 08.64  .27966 1.2454 155.3 22.2  110   6
2024 12 02 07  06 00 01.669   +08 16 20.36  .27953 1.2453 155.3 22.2  114   6
2024 12 02 08  06 00 02.340   +08 14 32.03  .27939 1.2452 155.3 22.2  119   6
2024 12 02 09  06 00 03.007   +08 12 43.64  .27926 1.2451 155.3 22.2  123   6
2024 12 02 10  06 00 03.670   +08 10 55.20  .27913 1.2450 155.3 22.2  128   6
2024 12 02 11  06 00 04.330   +08 09 06.71  .27899 1.2449 155.3 22.2  133   6
2024 12 02 12  06 00 04.985   +08 07 18.16  .27886 1.2448 155.3 22.2  137   6
2024 12 02 13  06 00 05.637   +08 05 29.56  .27873 1.2446 155.4 22.2  142   6
2024 12 02 14  06 00 06.284   +08 03 40.90  .27860 1.2445 155.4 22.2  147   6
2024 12 02 15  06 00 06.928   +08 01 52.19  .27847 1.2444 155.4 22.2  152   6
2024 12 02 16  06 00 07.568   +08 00 03.43  .27834 1.2443 155.4 22.2  157   6
2024 12 02 17  06 00 08.204   +07 58 14.62  .27820 1.2442 155.4 22.2  162   6
2024 12 02 18  06 00 08.836   +07 56 25.75  .27807 1.2441 155.4 22.2  167   6
2024 12 02 19  06 00 09.464   +07 54 36.84  .27794 1.2440 155.4 22.2  173   6
2024 12 02 20  06 00 10.088   +07 52 47.87  .27781 1.2439 155.4 22.2  178   6
2024 12 02 21  06 00 10.708   +07 50 58.85  .27768 1.2438 155.5 22.2  183   6
2024 12 02 22  06 00 11.325   +07 49 09.78  .27755 1.2437 155.5 22.2  189   6
2024 12 02 23  06 00 11.937   +07 47 20.65  .27742 1.2435 155.5 22.2  195   6
2024 12 03 00  06 00 12.546   +07 45 31.48  .27729 1.2434 155.5 22.2  200   6
2024 12 03 01  06 00 13.151   +07 43 42.25  .27716 1.2433 155.5 22.2  206   6
2024 12 03 02  06 00 13.752   +07 41 52.98  .27704 1.2432 155.5 22.2  212   6
2024 12 03 03  06 00 14.349   +07 40 03.65  .27691 1.2431 155.5 22.2  218   6
2024 12 03 04  06 00 14.942   +07 38 14.28  .27678 1.2430 155.5 22.2  224   6
2024 12 03 05  06 00 15.531   +07 36 24.85  .27665 1.2429 155.5 22.2  230   6
2024 12 03 06  06 00 16.117   +07 34 35.38  .27652 1.2428 155.6 22.2  236   6
2024 12 03 07  06 00 16.699   +07 32 45.85  .27640 1.2427 155.6 22.2  242   6
2024 12 03 08  06 00 17.277   +07 30 56.28  .27627 1.2426 155.6 22.2  248   6